Wind_Speed
56 54 51 51 52 53 51 48 47 47 45 45 46 46 47 47 48 48 48 48 48 47 46 45 45 45 45 45 46 46 46 46 47 48 48 49 50 51 51 52 53 55 57 58 59 60 61 62 63 63 63 64 64 65 65 66 67 67 68 69 69 69 68 69 70 71 71 72 73 74 75 77 78 78 78 79 80 81 82 83 83 83 85 87 88 88 89 90
57 56 53 51 51 53 54 53 50 49 48 47 47 47 48 49 50 51 51 51 51 52 53 52 51 51 51 51 51 52 53 53 53 54 54 55 56 57 57 58 58 58 59 59 60 60 61 62 63 64 64 64 64 65 66 66 67 68 68 69 71 70 70 71 72 73 74 75 76 78 80 81 82 81 81 82 83 84 85 86 84 85 88 89 89 90 91 92
57 56 55 54 52 52 54 54 54 53 52 50 49 49 48 49 51 52 52 52 53 55 57 57 57 57 57 57 57 58 59 59 59 60 61 62 63 65 65 66 66 66 66 66 66 66 66 67 68 69 69 70 70 71 71 71 71 72 73 74 75 75 75 76 77 78 78 79 80 82 83 84 85 84 83 84 85 87 89 87 85 88 90 91 92 93 94 95
57 56 56 55 53 52 52 53 54 54 55 54 53 52 51 50 51 52 53 53 53 55 56 58 59 60 60 61 62 62 63 64 65 66 67 67 68 69 69 70 70 71 71 72 72 72 73 73 74 74 75 76 76 77 78 78 78 78 79 80 81 80 81 81 81 82 82 83 84 85 86 87 87 86 86 87 88 91 92 89 89 91 92 92 94 95 96 96
57 57 56 55 55 54 53 53 53 54 54 55 55 55 54 53 53 53 54 55 55 55 56 57 58 59 62 64 65 65 66 67 68 70 71 72 72 72 72 73 74 74 75 75 76 76 77 78 78 79 80 81 81 81 82 81 81 81 83 83 83 84 84 85 85 86 86 87 87 87 88 89 90 89 90 90 92 95 93 92 93 94 94 94 95 96 97 97
56 57 57 56 56 55 54 53 53 53 54 54 55 56 56 56 56 56 56 56 57 57 57 57 57 58 59 61 63 64 64 65 67 68 70 72 73 74 74 75 75 76 77 78 79 80 81 82 82 83 84 84 84 85 85 85 85 85 86 86 86 86 87 88 88 87 88 88 88 88 89 91 92 91 92 93 97 97 94 94 97 96 96 96 96 96 96 96
51 54 56 56 57 56 56 55 54 54 54 55 55 56 57 57 58 58 58 59 59 59 59 60 60 60 60 61 61 62 63 63 65 66 67 69 70 72 73 74 75 76 77 78 79 80 81 82 83 84 84 85 85 86 87 86 86 87 88 88 87 88 89 89 89 89 90 89 90 90 91 93 93 93 94 97 100 98 95 98 99 98 98 97 96 94 93 93
44 47 51 54 56 56 57 57 56 56 55 56 56 56 57 58 59 59 60 60 61 61 62 63 63 63 63 64 64 65 65 66 67 68 69 70 71 72 73 74 75 76 77 78 79 80 81 82 83 84 84 85 85 86 87 86 87 87 88 88 89 89 90 91 91 92 92 92 93 93 94 95 95 95 96 102 103 99 99 100 99 98 97 95 92 90 89 90
37 40 43 47 50 53 55 57 57 58 58 57 57 58 58 59 59 60 61 62 62 63 63 64 65 66 67 67 68 69 69 70 71 72 73 74 75 76 77 78 78 79 80 81 82 83 84 85 86 87 87 87 88 89 89 89 89 90 91 91 92 92 93 94 95 96 95 95 96 97 97 97 96 96 99 105 103 99 100 99 97 95 92 90 87 85 85 85
33 35 38 41 44 47 50 53 55 57 58 59 59 59 60 60 61 61 62 63 64 65 65 66 67 68 69 70 71 72 73 75 75 76 77 78 79 80 81 82 83 84 85 86 87 88 89 90 91 92 92 92 93 94 94 94 95 95 95 95 96 97 97 98 99 100 99 98 99 99 99 97 96 96 101 104 99 96 98 95 91 88 86 84 82 81 82 82
28 30 33 35 38 41 44 46 49 52 54 56 58 59 60 61 62 63 64 64 65 66 67 68 68 69 70 71 73 74 76 77 78 80 81 82 83 84 85 86 87 88 89 90 91 93 94 94 95 97 97 98 98 99 99 99 100 100 100 100 101 101 100 101 101 102 101 99 99 98 96 94 94 97 100 97 93 92 91 87 83 81 80 80 79 79 79 79
25 26 28 30 32 34 37 39 42 44 47 49 52 54 56 57 59 60 61 63 64 65 66 67 68 69 70 71 73 74 76 78 79 81 82 84 85 86 88 89 90 91 92 94 95 96 97 98 99 99 100 101 101 101 101 101 101 101 101 100 100 100 99 100 100 99 98 96 96 94 90 88 90 95 95 90 88 87 83 80 78 77 77 78 78 78 77 76
22 24 25 27 29 30 32 34 36 38 39 41 43 45 47 49 51 52 54 56 57 59 60 61 63 65 66 67 69 71 73 75 76 78 80 81 83 84 86 87 89 90 91 92 93 95 95 96 96 96 97 97 97 97 96 96 95 95 95 93 93 93 92 93 93 92 92 90 90 88 83 82 87 90 89 86 84 81 77 75 74 75 76 77 77 76 74 73
21 22 24 25 26 28 29 30 31 33 34 36 38 39 41 42 44 46 47 49 50 52 53 55 57 58 60 61 63 65 67 69 71 72 74 76 77 79 80 82 83 84 85 85 87 88 88 89 89 89 90 90 90 89 88 88 88 88 87 86 86 85 85 86 86 85 86 85 84 82 78 78 83 85 84 82 78 75 73 73 73 74 74 74 74 73 71 70
20 21 22 23 24 25 26 28 29 31 32 34 35 37 38 40 41 42 44 45 46 48 49 51 52 53 55 57 59 61 63 65 66 68 70 71 72 74 75 77 78 78 79 80 81 82 82 82 82 82 83 83 82 82 82 82 82 82 81 80 80 80 80 81 81 81 82 81 79 78 76 76 80 82 81 77 75 73 72 72 72 72 72 71 70 69 68 68
19 19 20 21 22 23 24 26 27 28 30 31 33 34 35 37 38 39 40 42 43 45 46 48 49 50 52 54 57 59 61 62 63 65 67 67 68 69 71 72 73 73 73 74 75 76 76 76 76 76 76 77 76 76 77 77 78 78 77 76 77 77 77 77 78 79 78 77 76 76 76 76 78 79 76 74 74 74 72 71 70 69 69 69 68 68 67 68
17 18 19 20 20 21 22 23 25 26 27 28 29 30 32 33 34 35 37 38 40 42 44 45 47 49 51 53 56 57 59 60 61 62 63 64 64 65 66 67 68 68 68 69 70 71 71 71 71 72 72 72 71 71 72 73 75 75 74 74 75 75 75 75 77 77 76 75 75 76 75 76 77 75 73 73 73 73 72 70 68 67 67 68 69 69 68 69
16 17 18 19 19 20 20 21 22 23 24 25 27 28 29 31 33 34 35 37 39 41 42 44 46 48 50 53 55 56 57 57 58 59 60 61 61 62 63 64 64 65 65 66 67 68 69 69 69 69 68 66 66 66 67 68 70 70 71 71 71 72 73 74 75 75 74 74 75 75 75 75 74 73 73 72 71 71 70 69 68 68 68 69 71 71 72 72
16 17 18 18 18 19 19 20 21 22 24 25 27 29 30 32 34 34 35 37 38 40 41 43 45 47 50 52 54 55 55 55 56 57 58 59 59 60 61 61 62 62 63 64 65 66 65 64 65 63 61 59 60 61 61 62 64 65 66 67 68 69 70 72 73 71 72 73 74 74 73 73 72 72 71 70 69 69 69 69 70 71 71 72 73 74 76 76
17 18 18 19 19 20 21 21 23 24 25 27 28 30 32 33 34 34 35 37 39 40 41 43 45 47 50 52 53 53 53 53 54 55 56 57 57 58 59 59 60 60 60 60 60 61 59 58 59 56 54 54 54 55 56 57 59 60 62 63 64 65 66 69 69 68 70 70 71 71 71 70 70 69 69 68 68 69 70 71 73 73 74 74 74 75 76 77
19 20 21 22 22 23 24 25 26 27 28 29 31 32 32 33 33 34 36 38 40 42 43 44 46 48 50 51 51 52 52 52 53 54 55 55 56 57 58 58 58 58 56 55 55 55 54 54 53 51 50 51 51 51 52 53 55 56 58 59 60 61 62 64 66 66 67 68 68 68 67 67 66 66 66 67 69 70 72 73 74 74 74 74 75 75 76 77
21 22 24 25 26 27 28 29 29 30 32 33 33 34 34 35 36 37 39 40 41 43 44 46 48 50 51 51 51 51 52 53 53 54 54 54 55 56 56 56 56 54 53 51 50 50 50 50 49 48 48 49 48 49 49 50 52 53 55 56 57 59 59 60 62 63 65 66 66 65 65 65 64 65 67 69 71 73 75 75 75 75 75 75 76 77 79 81
24 26 27 28 30 31 32 33 34 35 36 37 37 37 38 39 40 41 42 42 42 43 45 47 50 52 52 52 52 52 53 54 54 54 54 55 55 55 55 54 52 50 49 48 47 47 47 46 46 46 46 47 47 47 48 48 50 51 53 53 54 56 57 58 59 61 62 63 64 65 66 66 66 68 70 72 74 75 75 75 74 75 76 77 79 81 83 85
27 28 30 31 33 34 35 36 37 38 38 39 40 40 41 41 42 44 44 43 43 45 47 49 51 52 53 54 54 54 54 55 54 55 55 55 55 54 52 50 48 47 46 45 45 45 45 45 45 45 45 45 46 47 47 48 49 51 52 52 53 55 56 56 58 59 61 62 64 66 68 68 69 71 72 72 73 73 74 74 75 76 78 80 82 84 86 87
29 30 32 33 35 36 37 37 38 39 39 40 40 41 42 43 44 43 43 43 45 47 49 51 52 53 54 55 55 55 55 55 55 55 55 54 53 51 49 47 45 44 44 43 43 44 45 45 45 45 45 45 46 46 47 48 49 51 52 52 53 54 56 57 58 60 62 64 66 69 71 70 70 71 72 72 73 74 75 77 78 80 82 84 85 87 88 89
29 30 31 33 34 36 36 36 37 38 38 39 40 41 43 43 42 42 43 45 47 49 51 52 53 54 54 55 55 55 55 55 55 55 54 52 49 47 45 44 43 42 42 42 42 43 43 44 44 45 45 45 46 46 47 48 49 51 53 53 54 55 57 59 61 62 64 66 68 71 73 72 71 72 74 75 77 78 79 81 82 84 86 88 89 90 91 92
27 28 29 30 31 33 34 35 36 37 38 40 41 41 41 40 41 42 45 48 50 51 52 53 54 54 55 55 56 55 55 55 54 53 51 47 45 43 42 42 41 41 41 40 41 41 41 42 43 43 44 45 46 47 48 48 50 51 53 54 56 57 59 61 63 65 66 68 70 73 75 76 75 76 78 80 81 83 84 85 86 88 89 90 92 92 93 94
27 27 28 29 31 33 34 34 35 37 38 39 39 39 39 40 42 45 47 49 51 52 53 54 55 55 55 55 55 55 55 54 52 49 46 43 42 41 40 40 40 39 39 39 40 41 41 42 43 43 44 45 46 47 48 49 50 51 53 55 57 59 61 63 65 67 69 70 73 75 78 79 79 79 81 82 84 85 86 87 88 89 90 91 93 94 96 97
28 29 30 32 34 34 35 34 35 37 37 38 38 39 40 42 44 46 48 50 52 53 54 55 56 56 55 55 55 55 54 51 48 45 42 41 39 38 38 38 38 38 39 39 40 42 43 43 44 44 45 46 46 48 49 50 50 51 53 55 56 58 61 63 65 68 70 71 74 76 78 80 80 79 81 83 84 85 86 87 88 90 92 94 96 97 99 100
30 31 33 34 35 35 35 36 37 37 37 37 38 39 41 43 45 47 49 51 53 54 55 55 56 56 55 55 54 52 50 47 44 41 40 38 37 37 37 37 38 38 39 40 42 43 44 45 46 46 47 47 48 49 49 50 51 52 53 55 56 58 59 62 64 66 68 70 72 74 76 78 78 77 79 82 83 84 84 86 88 90 92 94 95 96 96 97
33 33 34 35 35 35 36 36 37 37 37 37 38 40 42 45 47 49 51 52 54 55 55 55 55 56 56 54 51 48 45 42 41 39 38 36 36 36 37 38 39 40 41 42 43 44 45 46 47 48 48 49 50 50 51 51 52 54 55 56 57 59 60 61 63 65 66 68 70 71 73 75 75 74 76 79 80 81 81 83 85 87 88 89 90 91 91 92
33 33 33 34 35 35 36 37 37 37 38 39 41 43 45 47 49 50 52 53 54 55 56 56 55 55 53 50 46 43 40 39 38 37 36 35 36 37 38 39 40 41 42 43 44 45 47 48 49 49 50 50 51 52 52 53 54 55 57 58 59 60 61 62 63 65 67 68 69 70 72 73 73 73 75 77 78 79 79 81 83 84 85 86 88 89 89 90
32 32 33 34 35 36 37 38 39 39 40 42 43 45 47 49 51 52 53 54 54 55 56 55 54 51 48 44 42 39 37 36 35 35 35 36 37 38 40 41 42 43 44 45 46 47 48 50 50 51 51 52 52 53 54 55 56 57 58 60 61 62 63 63 64 66 67 69 70 71 72 73 72 73 75 77 78 79 80 81 82 84 85 86 87 88 89 89
33 33 34 35 37 38 39 41 42 42 43 44 46 48 49 51 52 53 54 54 54 54 55 53 49 46 43 40 38 37 36 35 35 36 37 38 39 40 42 43 44 45 45 46 47 48 50 52 53 53 53 54 54 55 56 57 58 59 60 62 63 64 65 65 66 67 68 70 71 72 73 73 72 74 75 77 79 80 81 82 83 84 84 86 87 87 88 88
34 34 36 38 39 41 42 43 44 45 46 47 49 50 51 53 53 54 54 54 54 53 50 47 43 41 39 37 36 36 36 36 37 38 39 40 41 42 43 44 45 46 47 48 49 50 51 54 56 56 56 56 57 58 59 59 61 61 62 63 64 65 67 67 67 67 68 69 70 71 72 73 73 74 75 77 80 81 82 83 84 84 85 86 87 87 87 88
36 38 40 41 42 43 44 45 46 47 48 50 51 53 53 54 54 54 54 54 52 48 44 41 39 37 37 36 36 37 37 38 39 40 41 42 43 44 45 46 47 48 49 50 51 51 52 55 57 58 58 58 58 59 60 61 62 62 62 63 64 65 66 67 67 67 68 69 69 71 73 74 75 76 77 79 81 81 82 83 83 83 83 84 85 85 85 85
39 41 42 43 43 44 45 46 48 50 51 52 54 54 55 55 55 54 53 50 46 42 39 38 37 37 37 38 38 38 39 40 41 42 43 44 45 46 47 48 49 50 51 52 53 53 53 56 58 58 58 58 59 60 60 61 62 62 62 63 64 65 66 66 67 68 69 70 71 71 73 75 75 76 76 77 78 78 78 79 79 79 79 80 81 81 81 82
41 42 42 43 44 45 47 49 51 52 53 54 55 55 55 55 53 50 47 43 40 39 38 38 38 38 39 40 40 41 41 42 43 44 45 46 47 48 49 50 51 52 53 54 54 55 54 56 58 59 58 58 59 60 60 61 62 62 63 64 64 65 66 67 68 69 69 70 70 70 70 70 71 71 72 72 73 73 74 75 76 77 77 79 80 82 83 84
42 43 43 45 46 48 50 51 53 54 54 55 55 54 53 51 47 44 41 39 38 39 39 40 40 40 41 42 42 43 44 45 46 47 48 49 50 50 51 52 52 53 54 54 54 55 55 55 57 58 58 58 59 59 60 60 61 62 62 63 64 64 65 65 66 67 67 67 67 66 65 65 66 68 69 70 71 72 74 76 77 78 80 82 84 86 87 89
44 45 46 47 49 51 52 53 53 54 55 54 53 51 48 44 41 40 39 39 39 40 41 41 42 42 43 44 44 46 47 47 48 49 50 51 51 52 52 52 53 53 54 54 54 54 54 54 55 56 56 55 56 57 58 58 59 60 60 61 62 62 62 62 62 63 64 64 64 64 63 64 67 70 71 72 74 76 77 79 81 83 84 86 88 90 92 93
47 47 49 50 51 52 53 53 53 54 53 51 48 45 42 41 40 40 40 41 41 42 42 43 43 44 45 46 47 48 49 50 50 51 51 52 52 52 52 53 53 53 53 53 53 53 52 52 53 53 53 53 54 54 55 56 56 57 57 58 59 59 59 59 59 61 63 64 65 66 65 66 70 73 74 75 77 79 81 83 85 86 88 89 91 93 95 97
48 49 51 51 52 52 53 53 53 52 49 46 44 42 42 42 42 42 42 42 43 43 44 44 45 46 47 48 49 49 50 51 51 51 51 52 52 52 52 51 51 51 51 51 51 51 50 50 51 51 51 51 52 53 53 54 54 55 56 57 57 58 59 60 60 62 64 66 68 69 68 69 72 75 77 79 80 82 84 86 88 90 91 93 95 97 99 101
49 50 50 51 51 51 52 52 51 48 46 44 43 43 43 43 43 43 44 44 44 45 46 46 47 48 49 50 50 50 51 51 50 51 51 51 51 51 50 50 50 49 50 50 50 50 49 49 49 50 50 50 50 51 52 53 53 54 56 58 59 59 60 61 63 64 66 68 70 72 72 73 75 77 79 81 83 85 88 90 92 94 96 97 100 102 104 106
49 49 50 50 50 50 50 49 48 46 45 44 44 45 45 44 45 45 45 45 46 47 48 48 49 50 50 50 50 50 50 50 50 50 50 49 50 49 49 49 49 48 48 49 49 49 49 48 48 49 50 50 51 52 53 54 55 56 57 59 61 62 63 64 65 67 69 71 73 75 76 78 79 81 83 86 88 90 92 95 97 99 100 102 105 107 110 111
48 49 49 50 50 49 48 47 45 45 45 45 45 45 45 45 45 46 47 47 48 49 49 50 50 50 50 50 50 49 49 49 48 48 48 48 48 48 48 48 47 47 48 48 48 49 49 49 49 49 49 51 52 54 55 56 57 58 59 61 63 64 65 67 69 71 73 75 77 79 81 82 84 86 89 91 93 95 98 100 102 104 106 107 110 112 114 115
48 48 49 49 49 48 46 45 45 45 45 45 46 46 46 46 47 47 48 49 49 50 50 50 50 49 49 49 48 48 48 47 47 46 46 46 46 46 47 47 47 47 47 48 48 49 50 50 50 50 51 52 54 56 57 58 59 61 62 64 65 67 69 71 73 75 77 79 82 84 86 87 89 91 94 96 98 101 103 106 108 110 111 113 115 117 117 118
47 47 48 48 47 46 45 45 45 45 45 46 46 46 47 48 48 49 49 49 49 49 49 49 48 48 47 47 47 46 46 46 46 45 45 45 45 46 46 46 47 47 47 48 49 50 51 52 52 53 54 56 57 59 60 61 63 64 66 67 69 71 73 75 77 80 82 84 87 89 91 93 94 96 99 102 104 106 108 111 113 115 116 118 119 119 119 119
46 46 46 46 45 44 44 45 45 46 46 47 47 48 48 48 49 49 49 49 48 48 47 47 46 46 45 45 45 45 45 45 45 45 45 45 46 46 46 47 47 48 49 50 51 52 54 55 56 56 57 59 61 62 64 65 66 68 70 71 73 75 77 80 82 84 87 89 91 94 96 98 99 101 104 106 108 110 113 115 116 117 117 118 117 117 116 116
46 46 45 44 43 43 44 45 45 46 47 48 48 49 49 48 48 48 48 47 46 45 45 44 44 44 44 44 44 45 45 45 46 46 46 46 47 47 48 48 49 50 51 52 54 55 57 58 59 60 61 62 64 65 67 69 71 73 74 76 77 79 81 84 86 89 91 94 96 98 100 102 104 105 108 110 111 113 115 115 115 115 114 114 113 113 113 112
44 44 43 42 43 44 44 45 46 47 48 49 49 49 48 48 47 46 45 44 44 43 43 43 43 43 44 44 44 45 45 45 45 46 47 48 48 49 50 51 52 53 54 55 56 58 59 61 62 63 64 66 67 69 71 73 75 78 79 81 82 84 85 88 90 92 95 98 100 102 104 106 107 109 110 111 112 113 113 113 113 112 112 111 111 110 110 109
42 41 42 42 43 45 46 47 48 48 48 48 48 48 47 46 45 44 43 43 42 42 42 43 43 43 44 44 44 45 45 46 46 47 48 49 50 51 52 53 54 55 56 57 59 60 62 64 65 66 68 70 71 73 75 77 79 82 84 85 86 88 90 92 94 96 99 102 104 105 107 109 110 110 111 111 111 111 111 111 110 110 109 109 109 109 108 108
40 41 42 43 45 46 46 47 47 47 47 46 46 45 45 44 43 43 42 42 42 43 43 43 43 43 44 44 45 45 46 47 47 48 49 50 51 53 54 55 56 57 59 60 62 63 65 67 69 71 72 74 76 77 79 81 83 85 88 89 91 93 94 96 98 100 103 105 106 107 108 108 108 108 108 108 108 108 108 108 108 107 107 107 107 107 107 108
Wind_Direction
221 223 224 223 224 224 225 224 223 223 224 225 226 227 228 228 230 233 234 233 232 233 235 236 238 240 242 243 245 246 247 248 250 251 252 253 254 256 257 258 258 258 258 258 259 259 260 260 260 261 261 261 262 262 262 263 264 265 265 266 266 266 267 268 268 269 270 271 272 272 272 272 273 274 275 276 276 277 278 278 279 280 280 280 281 281 281 282
224 225 227 227 226 227 228 228 228 228 229 229 229 229 229 230 231 233 235 236 236 236 237 238 239 241 243 245 247 247 249 249 250 251 251 253 254 256 257 259 259 259 259 258 258 258 259 259 260 261 261 262 262 262 262 263 264 265 266 266 267 267 268 268 269 270 271 272 273 273 274 274 275 276 276 276 277 278 278 279 280 280 280 280 281 281 281 281
227 228 229 230 230 229 230 231 232 232 233 234 234 234 234 233 234 235 236 238 238 239 240 241 241 243 245 248 250 252 254 255 256 257 257 257 258 260 261 262 262 263 263 262 262 262 262 263 264 265 265 266 266 266 266 267 267 268 268 269 269 270 270 271 271 272 273 273 274 274 275 276 277 277 277 278 278 278 278 280 280 280 280 281 281 281 282 282
229 230 231 233 233 233 233 233 234 235 236 238 239 239 239 239 238 239 240 241 242 243 243 244 245 246 248 251 253 255 255 257 259 261 262 262 263 263 264 264 264 265 265 265 265 265 266 266 266 267 268 268 268 269 269 270 270 270 271 271 272 272 273 273 274 274 275 275 275 276 277 277 278 278 278 279 279 279 279 281 280 280 280 281 281 281 282 282
230 232 233 234 236 236 237 237 237 237 238 240 241 242 243 243 243 243 244 245 246 247 248 249 249 250 251 254 256 257 257 257 259 260 262 263 264 265 265 265 265 266 266 266 266 266 267 267 268 268 268 269 269 269 270 270 271 271 272 273 273 274 274 274 275 275 275 276 276 276 277 277 278 278 278 278 278 278 280 280 280 280 280 280 280 280 281 280
231 233 234 236 237 238 239 240 241 241 241 242 243 244 245 246 246 247 247 248 249 250 251 251 252 252 253 254 255 257 258 258 259 260 260 262 263 264 265 265 265 266 266 266 266 266 267 268 268 269 269 269 270 270 270 270 271 272 272 273 274 274 275 275 275 275 276 276 276 277 277 277 278 278 278 278 278 278 279 279 279 280 280 279 279 279 279 279
233 235 236 237 238 240 241 242 243 244 244 245 246 246 247 248 248 249 250 251 251 252 252 253 254 255 255 256 257 257 258 259 260 260 261 261 262 262 263 264 264 265 265 265 266 266 266 267 267 268 268 269 269 270 270 271 271 271 272 272 273 273 274 274 275 275 276 276 276 277 277 277 278 278 278 278 278 279 279 279 279 279 279 279 279 279 278 278
236 237 238 239 241 242 243 244 245 246 247 247 248 249 249 250 250 251 252 253 253 254 255 255 256 257 258 258 259 260 260 260 261 261 262 263 263 263 264 264 264 265 265 266 266 266 267 267 267 268 268 269 269 270 270 271 271 271 272 272 272 273 273 274 274 275 275 276 276 276 276 277 277 278 278 277 278 279 279 279 279 279 279 279 279 278 277 276
237 239 240 241 242 243 244 246 247 248 249 250 250 251 251 252 253 253 254 255 255 256 256 257 258 259 259 260 261 262 262 262 263 263 264 264 265 265 266 266 266 266 267 267 267 268 268 268 268 268 269 269 269 270 270 271 271 271 271 272 272 273 273 273 274 274 275 275 275 276 276 276 277 277 276 277 279 279 279 279 280 280 280 279 279 278 276 276
239 240 241 243 244 244 245 247 248 249 250 251 253 253 254 255 255 256 256 257 258 258 259 260 260 261 262 263 263 264 264 264 265 265 265 266 266 267 267 268 268 268 269 269 269 269 270 270 270 270 270 270 270 270 271 271 271 271 272 272 272 273 273 274 274 274 275 275 275 276 276 277 277 276 276 278 279 279 279 279 280 280 279 278 277 276 275 275
241 243 244 245 246 247 248 249 250 251 252 253 254 255 256 257 258 259 259 260 261 262 262 263 263 264 264 265 266 266 266 266 267 267 267 267 268 268 268 269 269 270 270 270 271 271 271 271 271 271 272 272 271 271 271 272 272 272 272 273 273 273 273 274 274 274 275 275 275 276 276 277 277 276 276 278 278 277 278 279 279 279 278 277 276 274 274 274
244 245 246 247 248 249 250 251 252 253 254 255 256 257 258 259 260 261 262 262 263 264 264 265 266 266 266 266 267 267 268 268 268 268 269 269 269 269 270 270 270 270 271 271 271 271 272 272 272 272 273 273 273 272 272 272 273 273 273 273 273 273 273 273 273 274 274 274 275 275 276 277 276 276 277 277 277 277 278 278 278 277 276 275 273 273 273 273
248 248 249 250 250 251 252 253 254 255 256 257 258 259 260 261 261 262 263 263 264 264 265 266 266 266 267 267 268 268 269 269 269 270 270 270 270 271 271 271 271 271 271 272 272 272 272 272 273 273 273 273 273 273 273 273 273 273 273 273 273 273 273 273 273 273 273 273 274 274 275 276 275 275 276 276 276 278 278 278 277 276 274 273 272 272 272 272
253 254 254 254 255 255 256 257 257 258 259 259 259 260 261 261 262 262 263 264 264 265 265 266 267 267 268 269 269 269 269 270 270 271 271 271 272 272 272 272 272 273 273 273 273 273 273 273 273 273 273 273 273 273 273 273 272 272 272 272 272 272 272 272 273 273 273 273 274 274 275 275 275 275 275 276 277 278 278 278 276 274 273 273 272 273 272 271
259 259 259 260 260 261 261 262 262 262 262 262 262 263 263 263 264 264 265 265 266 266 266 267 268 269 269 270 270 270 271 271 272 272 273 273 273 274 274 274 274 274 274 274 274 274 274 274 273 273 273 273 273 272 272 272 272 271 271 271 271 271 271 272 272 272 273 273 274 275 275 275 275 275 276 277 278 278 277 276 275 274 273 273 272 272 272 272
265 266 266 266 266 266 266 266 265 265 265 265 265 264 264 264 265 265 266 266 267 267 268 269 270 270 271 271 271 272 272 273 273 274 274 274 275 275 275 275 275 275 275 275 275 275 274 274 274 273 273 272 272 271 271 271 270 270 270 270 270 270 270 271 271 271 272 273 274 274 274 274 275 276 278 279 278 277 277 276 274 274 273 273 273 272 272 273
273 273 271 270 269 268 267 267 266 266 266 266 266 266 266 266 267 268 269 270 271 272 272 273 272 272 273 273 273 273 274 275 275 276 276 276 277 277 277 277 277 277 277 277 276 276 276 276 275 274 273 272 272 271 270 269 269 269 269 268 268 269 269 270 270 271 272 273 273 273 274 274 275 277 278 277 277 277 276 275 274 273 273 274 274 274 274 274
278 276 273 270 268 267 267 268 269 270 271 272 272 272 271 271 271 272 273 275 276 277 277 276 276 276 276 276 276 276 277 278 279 279 279 280 279 279 279 278 278 278 278 278 278 278 277 277 276 275 274 274 273 271 270 269 269 268 268 268 268 268 268 269 269 271 272 272 272 272 273 274 275 276 276 276 276 275 274 273 272 273 273 274 275 276 276 276
280 278 276 274 273 273 275 276 277 278 279 279 278 277 276 275 275 276 277 279 280 280 279 279 279 279 279 279 280 280 281 282 282 282 282 282 282 281 281 280 280 280 279 279 279 278 277 277 276 275 275 274 273 271 270 269 269 268 268 268 268 268 268 269 269 270 271 271 272 272 273 274 275 275 275 274 273 272 272 272 272 272 273 274 275 276 277 277
284 284 283 283 283 283 283 284 284 284 284 283 282 281 281 280 280 280 282 284 285 285 283 283 283 283 283 283 283 284 285 285 285 285 285 285 284 284 283 282 282 281 281 280 279 278 278 277 276 277 276 275 274 273 272 271 270 270 269 269 269 269 269 269 270 270 270 270 271 272 272 273 274 274 274 273 272 272 272 272 272 273 274 275 276 276 277 276
288 289 289 289 289 289 289 290 290 291 290 289 288 288 288 288 289 289 290 292 292 291 290 290 289 288 287 287 288 289 290 289 289 288 287 287 286 286 285 285 284 284 283 281 280 279 279 279 278 279 278 277 276 275 274 274 273 272 271 271 270 270 270 270 271 271 270 270 270 271 271 271 272 271 271 271 271 272 272 273 274 276 277 277 277 277 276 276
292 292 292 293 293 294 294 295 295 295 295 294 294 294 295 296 297 297 297 297 296 295 295 294 292 291 291 291 292 293 293 293 292 291 290 289 289 288 287 287 286 285 284 283 281 280 280 280 281 281 280 279 279 278 278 277 275 274 273 272 272 272 271 271 271 271 271 271 271 271 270 269 268 268 268 269 270 271 273 274 275 276 277 277 276 276 277 278
293 294 295 295 295 295 296 297 298 298 297 297 298 298 299 299 299 299 299 299 298 297 296 295 294 294 295 296 296 296 296 296 295 293 292 292 291 290 290 289 287 286 285 284 283 282 281 282 283 283 282 282 282 281 281 279 278 277 276 275 274 274 273 272 271 271 271 270 270 270 269 269 268 268 268 269 270 271 273 274 275 275 275 275 275 276 277 278
291 293 293 294 294 294 295 296 297 297 297 298 298 299 299 299 299 300 300 299 298 297 296 296 297 298 299 299 299 299 298 297 296 295 295 294 294 293 291 290 288 287 286 286 286 286 286 286 286 285 285 284 284 283 282 281 280 279 278 277 276 275 274 273 272 271 271 270 270 270 270 271 271 271 271 271 272 272 273 273 274 274 274 275 276 277 278 279
288 289 290 291 292 292 293 294 295 295 296 296 297 297 297 298 299 300 299 298 298 298 298 298 299 300 300 300 300 300 299 298 298 297 296 296 295 293 292 290 289 288 287 287 288 288 288 289 288 288 288 287 286 285 284 283 282 281 280 279 277 275 274 273 271 270 270 270 271 271 272 272 273 273 273 273 273 273 273 273 274 274 275 276 277 278 279 279
287 288 289 291 291 292 293 294 294 294 294 295 295 295 297 298 299 300 300 300 300 300 300 300 301 301 301 301 301 301 300 299 299 298 297 296 294 293 291 290 289 288 288 288 289 288 288 289 289 289 289 288 288 287 286 285 283 282 282 281 279 277 275 273 272 271 270 270 271 272 273 274 274 273 273 273 273 273 273 274 274 275 276 277 278 278 278 278
289 290 292 293 294 296 297 296 296 295 295 295 296 297 299 300 301 301 302 302 302 301 301 301 302 302 302 302 302 302 301 300 300 299 297 296 294 292 291 290 290 289 289 289 289 289 289 289 289 290 290 289 289 288 287 287 285 284 283 282 281 279 277 276 274 273 273 272 272 272 273 274 274 274 274 274 274 275 275 276 276 277 278 278 279 278 278 278
293 294 295 298 301 303 304 302 302 301 300 300 300 300 300 301 302 303 303 302 302 302 302 303 303 303 303 303 302 302 301 301 299 298 296 295 293 292 291 290 290 290 290 290 290 290 290 290 290 291 291 290 290 290 289 288 287 286 285 283 282 281 279 278 277 276 275 274 273 273 274 274 275 275 275 276 276 276 277 278 279 279 279 279 278 278 278 278
296 298 301 304 307 308 308 307 306 305 304 303 302 301 302 303 303 303 302 302 302 303 304 304 304 304 304 303 303 302 301 300 299 297 296 294 293 293 292 291 291 291 291 291 291 292 292 292 292 292 292 291 291 290 290 289 289 288 286 285 283 282 281 280 279 278 278 277 276 276 276 277 277 278 278 278 278 279 279 279 279 279 279 279 278 278 279 279
302 304 307 308 309 309 309 307 307 306 305 304 303 303 303 303 303 303 303 303 304 304 305 305 305 304 304 304 303 302 301 299 298 296 295 295 294 293 292 292 292 292 292 293 293 294 294 294 293 293 292 292 291 291 290 290 289 288 287 286 285 284 283 282 282 281 281 280 280 279 280 280 280 281 281 281 281 280 280 280 279 279 279 279 279 279 280 280
305 307 308 309 311 312 312 311 310 310 309 307 306 305 305 304 303 303 304 304 305 305 305 305 305 305 305 304 303 302 300 299 298 297 296 296 295 294 294 294 294 294 294 294 294 294 294 294 293 293 292 292 292 291 291 290 289 288 288 287 286 286 285 284 284 284 283 283 282 282 282 282 283 283 283 282 282 282 281 281 280 280 279 280 280 280 281 281
306 309 311 313 316 317 317 316 314 313 311 310 308 306 304 304 304 304 305 306 306 306 306 306 306 305 305 304 303 301 300 299 297 297 296 296 295 295 295 295 295 295 295 295 295 295 294 294 293 293 293 293 292 292 292 291 290 290 289 288 288 287 286 286 286 285 285 284 284 284 283 284 285 285 284 283 283 283 282 282 281 281 281 282 282 282 283 283
310 313 315 316 319 320 320 319 317 315 312 310 307 305 305 305 306 306 306 307 307 307 307 306 306 305 304 303 303 301 300 298 297 297 297 296 296 296 296 296 296 296 295 296 295 295 295 294 294 293 293 293 293 293 292 291 291 290 290 289 288 288 287 287 286 286 285 285 285 285 285 285 286 286 285 285 284 284 283 282 282 283 283 283 283 283 283 284
313 314 315 317 320 321 321 320 317 314 311 308 307 307 307 307 307 307 307 307 307 307 307 306 306 305 304 303 302 301 301 300 299 299 298 298 298 297 297 297 297 297 297 297 297 297 297 296 295 295 294 294 294 294 293 292 292 291 290 290 289 289 288 287 286 286 286 286 286 286 286 286 286 286 285 285 285 284 284 284 283 283 283 283 283 283 284 284
315 316 317 318 319 320 319 317 314 311 310 309 309 309 309 309 308 308 308 308 307 307 307 306 305 305 304 304 303 302 302 302 301 301 300 299 299 298 298 298 298 298 298 298 297 297 297 296 296 296 296 296 296 295 294 293 292 292 291 290 290 289 289 288 288 287 287 287 287 287 287 287 286 286 286 285 284 285 285 284 284 284 284 284 284 284 284 285
317 318 317 317 317 316 315 312 311 311 311 311 311 310 310 310 309 309 308 308 308 307 306 306 305 305 304 304 303 303 302 302 302 301 300 300 300 299 299 299 298 298 298 298 297 297 297 296 295 295 296 296 296 295 294 293 292 291 291 290 289 289 289 288 288 288 287 287 287 287 287 287 287 287 286 285 285 285 285 285 285 285 285 285 285 285 285 285
316 316 316 316 315 314 313 312 312 313 313 312 312 311 310 310 309 309 309 309 308 308 308 307 306 306 305 304 304 303 303 302 302 302 301 301 301 300 300 299 299 299 298 298 297 297 297 296 295 295 295 296 295 294 293 292 291 291 290 290 289 289 289 289 288 288 287 287 287 287 287 288 288 288 287 286 286 286 286 286 286 286 286 286 286 286 286 286
314 314 315 315 314 314 314 314 314 314 313 312 311 311 310 310 309 309 309 310 310 309 309 308 308 307 306 306 305 305 304 304 303 303 302 302 301 301 300 300 300 299 299 298 298 297 297 296 295 296 296 295 294 293 292 292 291 291 290 290 289 289 289 289 289 289 289 289 289 289 288 289 289 288 288 287 288 288 288 288 288 288 288 288 288 288 288 288
314 315 316 315 315 315 315 314 314 313 313 312 311 311 311 310 310 311 311 311 310 309 309 308 308 307 307 307 306 306 305 305 304 304 303 303 302 302 301 301 300 300 299 299 298 297 297 296 295 295 295 295 294 293 292 292 291 291 291 291 291 291 291 291 291 291 291 290 290 290 290 290 290 289 289 290 290 290 290 290 290 290 290 290 290 290 289 289
313 314 315 315 315 315 314 313 313 313 312 312 312 312 312 312 312 312 312 311 310 309 309 309 308 308 307 307 307 306 306 305 305 305 304 304 303 303 302 301 301 300 300 299 298 298 297 296 295 295 295 295 294 294 293 293 293 292 292 292 292 292 292 292 293 292 292 292 292 292 292 293 292 292 292 293 293 293 293 292 292 292 291 291 290 290 290 289
312 313 314 314 314 313 312 312 312 312 313 313 314 314 314 314 313 312 311 311 310 310 309 309 309 308 308 307 307 306 306 306 306 305 305 304 303 303 302 302 302 301 300 300 299 299 299 298 297 297 297 296 296 295 295 294 294 294 294 294 293 294 294 294 294 294 294 295 295 295 296 296 294 294 295 295 294 294 293 293 292 292 291 291 291 291 290 290
311 312 313 312 312 311 311 312 312 313 314 314 315 315 314 314 313 312 311 311 311 310 310 309 309 308 308 308 307 307 307 306 306 305 304 304 303 303 303 303 302 302 301 301 300 300 300 299 298 298 298 298 298 297 296 296 296 296 296 296 296 296 297 297 297 296 296 297 297 297 298 297 295 295 295 294 294 294 293 293 292 292 292 292 292 291 291 291
311 311 311 310 310 310 311 311 312 314 314 315 315 315 314 313 313 312 312 312 311 311 310 310 309 309 309 308 308 307 307 306 306 305 305 305 305 305 304 304 304 303 303 302 301 301 301 301 301 301 301 300 299 299 298 299 299 299 298 298 298 299 299 299 299 298 298 297 297 297 297 295 294 294 293 293 293 293 293 292 292 292 292 292 292 292 292 291
310 310 309 309 309 310 311 312 313 314 315 315 315 314 314 313 313 313 312 312 311 311 311 310 310 310 309 309 308 308 307 307 307 307 307 307 306 306 306 306 305 305 304 304 304 303 303 303 303 304 304 303 301 301 301 301 301 301 300 300 300 301 300 300 299 298 298 297 296 296 296 295 294 294 294 294 294 293 293 293 292 293 293 292 292 292 291 291
309 309 309 309 310 311 312 313 314 315 315 315 314 314 314 313 313 313 313 312 312 312 311 311 311 310 310 309 309 309 309 309 309 309 308 308 308 307 307 307 307 306 306 306 306 305 305 305 306 306 305 304 303 303 303 303 302 302 301 301 300 300 300 298 298 297 297 297 296 296 295 295 295 295 295 295 294 294 293 293 293 293 293 293 292 292 292 292
308 309 309 310 311 312 313 314 314 315 314 314 314 314 314 314 314 313 313 313 313 312 312 312 311 311 311 311 311 311 311 310 310 310 309 309 309 309 309 309 308 308 308 308 308 307 307 307 307 307 306 304 303 303 303 302 302 301 301 300 300 299 298 298 298 297 297 297 297 296 296 296 296 296 295 295 295 295 294 294 294 294 295 295 294 294 295 295
308 309 310 311 312 313 314 314 314 314 314 314 314 314 314 314 314 314 314 314 313 313 313 312 312 312 312 312 312 312 312 311 311 311 311 311 311 311 311 310 310 310 310 310 310 309 308 308 308 307 306 305 304 304 303 303 302 301 300 300 300 299 299 298 298 298 298 298 297 297 297 297 297 296 296 296 296 296 296 296 296 296 296 296 296 296 296 296
309 310 311 312 313 313 314 314 315 315 314 314 314 314 314 315 315 315 314 314 314 313 314 314 314 314 314 314 314 314 313 313 313 314 314 313 313 313 313 312 312 312 312 312 310 309 309 308 308 307 306 305 304 304 303 302 302 301 300 300 300 300 299 299 299 299 298 298 297 297 297 297 297 297 297 297 297 297 297 297 297 297 297 297 297 297 297 297
311 312 312 313 313 314 315 315 315 315 315 315 315 315 315 315 315 315 315 315 315 315 315 316 316 316 316 316 316 316 316 316 316 316 316 316 316 315 314 314 313 313 313 311 310 309 309 308 307 307 306 305 304 304 303 303 302 301 301 301 300 300 300 299 299 299 298 298 298 297 297 298 298 298 298 298 298 298 298 297 297 298 298 298 298 298 297 297
312 312 313 313 314 315 316 316 315 315 315 315 315 315 316 316 316 316 316 316 317 317 318 318 318 318 318 318 317 317 318 318 318 318 318 317 317 316 315 314 313 313 312 311 310 309 308 307 307 306 305 305 304 304 303 303 302 301 301 301 300 300 300 299 299 299 298 298 298 298 298 299 299 299 299 299 299 299 299 299 299 299 299 299 299 298 298 298
313 313 314 316 316 317 316 316 315 315 315 316 317 317 317 318 318 318 318 319 319 320 321 321 320 320 320 319 319 319 319 319 319 318 317 316 316 315 314 313 313 312 311 310 309 308 308 307 306 306 305 304 304 304 303 303 302 301 301 301 301 300 300 300 300 299 299 299 299 300 300 300 300 300 300 300 300 300 299 299 299 299 299 299 299 299 299 299
315 316 317 317 317 316 316 315 316 316 317 318 318 319 319 320 321 321 322 322 323 323 323 323 322 322 321 321 320 320 319 318 318 317 316 315 315 314 313 312 312 311 310 309 309 308 307 307 306 306 305 304 304 304 303 303 302 302 302 302 301 301 301 301 301 301 301 301 300 300 300 300 300 300 300 300 299 300 300 300 299 300 300 299 299 299 299 299
Height
10744 10746 10747 10748 10750 10751 10753 10754 10756 10758 10759 10759 10760 10760 10761 10761 10762 10762 10762 10763 10763 10763 10763 10763 10764 10764 10763 10763 10763 10763 10763 10762 10762 10762 10761 10760 10760 10759 10759 10758 10758 10757 10756 10755 10755 10754 10753 10752 10750 10749 10748 10747 10747 10745 10745 10744 10743 10743 10742 10741 10738 10739 10739 10737 10735 10733 10732 10731 10729 10727 10725 10722 10721 10721 10720 10716 10712 10710 10709 10706 10706 10705 10699 10695 10694 10693 10689 10687
10741 10743 10744 10746 10747 10748 10750 10751 10753 10755 10756 10756 10756 10757 10758 10759 10759 10759 10759 10759 10760 10760 10760 10760 10760 10760 10760 10760 10760 10759 10759 10758 10758 10757 10757 10756 10755 10755 10754 10753 10753 10752 10751 10751 10750 10749 10748 10747 10745 10743 10742 10742 10741 10739 10739 10738 10738 10737 10736 10734 10731 10733 10733 10730 10729 10727 10727 10725 10723 10720 10717 10714 10713 10713 10712 10708 10704 10703 10699 10698 10701 10697 10689 10687 10686 10683 10680 10678
10739 10740 10742 10743 10744 10746 10747 10748 10750 10751 10752 10752 10753 10754 10755 10755 10756 10756 10756 10756 10756 10756 10756 10756 10756 10756 10756 10756 10755 10755 10754 10753 10753 10752 10751 10751 10750 10749 10749 10748 10747 10746 10745 10745 10744 10743 10742 10741 10739 10737 10736 10736 10735 10734 10733 10732 10733 10731 10729 10727 10725 10726 10725 10723 10722 10721 10720 10718 10716 10712 10709 10706 10705 10705 10703 10699 10697 10692 10689 10693 10694 10687 10681 10680 10677 10673 10671 10668
10737 10738 10739 10740 10742 10743 10744 10746 10747 10748 10748 10749 10750 10750 10751 10751 10752 10752 10752 10752 10752 10752 10752 10752 10752 10752 10752 10752 10751 10750 10749 10748 10747 10746 10745 10745 10744 10743 10743 10741 10740 10740 10739 10738 10737 10736 10735 10734 10733 10731 10730 10729 10728 10727 10726 10726 10726 10725 10722 10719 10718 10718 10717 10715 10715 10713 10712 10710 10708 10705 10702 10698 10696 10697 10694 10692 10688 10681 10681 10686 10684 10677 10675 10673 10668 10664 10661 10658
10734 10735 10736 10738 10739 10740 10741 10742 10743 10744 10745 10746 10746 10747 10747 10747 10748 10748 10748 10748 10748 10748 10748 10748 10748 10748 10748 10747 10747 10746 10744 10743 10742 10741 10740 10739 10737 10736 10736 10735 10734 10733 10732 10731 10730 10729 10728 10727 10726 10725 10723 10721 10721 10720 10719 10719 10719 10717 10714 10712 10711 10710 10708 10706 10706 10705 10703 10702 10700 10697 10695 10690 10688 10689 10686 10684 10678 10672 10676 10677 10671 10669 10667 10664 10660 10656 10652 10649
10732 10733 10734 10735 10736 10737 10738 10739 10740 10741 10742 10742 10742 10743 10743 10744 10744 10744 10744 10744 10744 10744 10744 10744 10744 10743 10743 10743 10742 10741 10739 10738 10737 10736 10735 10733 10731 10730 10729 10728 10727 10726 10725 10724 10723 10722 10721 10720 10719 10717 10715 10714 10714 10712 10711 10712 10712 10710 10707 10705 10704 10702 10700 10697 10697 10696 10694 10693 10690 10689 10687 10682 10680 10679 10677 10674 10666 10666 10671 10666 10662 10661 10658 10654 10652 10649 10644 10639
10730 10731 10732 10733 10734 10734 10735 10736 10737 10738 10738 10739 10739 10739 10740 10740 10740 10740 10740 10740 10740 10740 10739 10739 10739 10739 10738 10737 10736 10735 10734 10733 10731 10730 10729 10727 10726 10724 10723 10722 10721 10720 10718 10717 10716 10715 10714 10713 10711 10710 10708 10707 10706 10704 10704 10704 10704 10702 10699 10698 10698 10695 10692 10689 10689 10687 10685 10684 10682 10680 10677 10674 10672 10669 10667 10660 10654 10660 10661 10655 10653 10652 10648 10645 10643 10640 10635 10629
10728 10729 10729 10730 10731 10732 10732 10733 10733 10734 10735 10735 10735 10736 10736 10736 10736 10736 10736 10736 10735 10735 10735 10734 10734 10733 10732 10731 10730 10729 10728 10727 10725 10724 10722 10721 10720 10718 10717 10716 10715 10713 10711 10710 10709 10707 10707 10706 10703 10702 10701 10700 10699 10696 10695 10696 10695 10693 10691 10690 10689 10686 10684 10682 10679 10677 10677 10675 10672 10671 10668 10666 10664 10661 10655 10645 10646 10652 10648 10644 10643 10640 10637 10634 10633 10631 10624 10618
10725 10726 10726 10727 10728 10728 10729 10729 10729 10730 10730 10731 10731 10731 10732 10732 10732 10731 10731 10731 10730 10730 10729 10729 10728 10728 10727 10726 10725 10723 10722 10720 10719 10718 10716 10715 10713 10711 10710 10708 10708 10706 10704 10703 10701 10700 10698 10697 10695 10694 10693 10692 10691 10688 10687 10688 10686 10684 10683 10682 10680 10677 10676 10673 10670 10668 10667 10666 10663 10660 10657 10656 10654 10652 10643 10634 10641 10642 10634 10633 10632 10629 10626 10623 10623 10620 10613 10608
10722 10723 10723 10724 10724 10724 10725 10725 10726 10726 10727 10727 10727 10727 10727 10727 10727 10727 10726 10726 10726 10725 10724 10724 10723 10722 10721 10720 10718 10717 10715 10713 10712 10711 10709 10708 10706 10705 10703 10701 10700 10698 10696 10695 10693 10691 10690 10688 10687 10685 10684 10683 10681 10680 10679 10678 10676 10675 10674 10673 10670 10668 10666 10663 10660 10657 10657 10656 10653 10649 10647 10645 10643 10639 10630 10628 10635 10631 10623 10624 10622 10619 10617 10613 10612 10609 10603 10599
10720 10720 10721 10721 10721 10722 10722 10722 10722 10723 10723 10723 10723 10723 10723 10723 10723 10722 10722 10721 10721 10720 10719 10718 10718 10717 10715 10714 10712 10711 10708 10706 10705 10704 10702 10700 10699 10698 10696 10694 10692 10690 10689 10687 10685 10683 10681 10679 10677 10675 10674 10673 10671 10670 10669 10668 10666 10664 10664 10662 10659 10658 10657 10653 10649 10647 10646 10644 10641 10639 10637 10635 10630 10624 10620 10623 10624 10619 10617 10617 10614 10611 10607 10604 10601 10598 10595 10592
10718 10718 10718 10719 10719 10719 10719 10719 10719 10719 10719 10719 10719 10719 10719 10719 10718 10718 10717 10716 10716 10715 10714 10713 10712 10710 10708 10707 10706 10704 10701 10699 10698 10696 10695 10693 10691 10690 10688 10686 10684 10682 10680 10678 10676 10673 10672 10670 10668 10666 10663 10661 10660 10659 10658 10657 10656 10653 10652 10651 10648 10647 10646 10641 10639 10637 10635 10634 10630 10629 10629 10624 10616 10612 10613 10615 10611 10610 10611 10609 10605 10603 10598 10594 10590 10588 10587 10585
10715 10715 10716 10716 10716 10716 10716 10716 10716 10716 10716 10716 10716 10715 10715 10714 10714 10713 10712 10711 10710 10709 10708 10706 10705 10703 10702 10700 10699 10696 10694 10692 10690 10689 10687 10685 10683 10681 10679 10677 10675 10674 10672 10670 10667 10664 10662 10660 10658 10656 10653 10651 10648 10647 10648 10646 10644 10643 10641 10640 10637 10636 10634 10630 10629 10626 10624 10623 10620 10620 10622 10613 10603 10603 10605 10603 10603 10604 10603 10600 10597 10592 10587 10584 10581 10580 10580 10578
10713 10713 10713 10713 10713 10713 10713 10713 10713 10713 10713 10712 10712 10711 10711 10710 10709 10708 10707 10706 10705 10703 10702 10700 10699 10697 10696 10694 10692 10690 10688 10686 10684 10682 10680 10678 10676 10673 10671 10669 10667 10665 10663 10661 10658 10655 10653 10650 10648 10646 10643 10641 10639 10637 10637 10635 10634 10632 10631 10630 10628 10626 10623 10620 10619 10616 10613 10612 10611 10612 10613 10604 10592 10594 10596 10595 10597 10596 10594 10591 10586 10580 10577 10575 10574 10573 10573 10570
10710 10710 10710 10710 10710 10710 10710 10710 10710 10709 10709 10708 10708 10707 10707 10706 10705 10704 10703 10701 10700 10698 10697 10695 10694 10692 10690 10688 10686 10683 10681 10679 10678 10675 10673 10671 10668 10666 10663 10661 10658 10656 10655 10652 10649 10646 10643 10641 10639 10637 10634 10632 10630 10629 10627 10626 10624 10622 10622 10622 10619 10617 10614 10611 10609 10607 10604 10603 10603 10602 10602 10595 10583 10582 10588 10590 10589 10586 10584 10580 10575 10571 10569 10567 10566 10565 10565 10563
10708 10708 10708 10708 10707 10707 10707 10707 10706 10706 10705 10705 10704 10704 10703 10702 10701 10700 10699 10697 10695 10694 10692 10691 10689 10687 10685 10682 10680 10677 10675 10673 10672 10668 10666 10664 10662 10659 10656 10653 10650 10648 10646 10643 10640 10637 10634 10631 10629 10627 10625 10622 10621 10620 10618 10617 10614 10612 10614 10613 10610 10609 10607 10603 10600 10597 10596 10596 10595 10592 10591 10586 10576 10576 10581 10581 10578 10575 10573 10570 10567 10564 10561 10558 10558 10557 10557 10555
10706 10706 10706 10705 10705 10705 10704 10704 10703 10703 10702 10702 10701 10700 10699 10698 10697 10696 10695 10693 10691 10689 10688 10686 10684 10682 10679 10677 10674 10672 10670 10668 10665 10662 10659 10657 10655 10651 10648 10645 10642 10640 10638 10634 10631 10628 10625 10622 10620 10617 10615 10614 10613 10612 10609 10607 10605 10604 10605 10604 10602 10600 10598 10595 10591 10589 10589 10588 10585 10582 10580 10576 10571 10572 10573 10570 10568 10565 10563 10562 10560 10557 10553 10551 10549 10548 10549 10548
10705 10704 10704 10704 10703 10703 10702 10702 10701 10700 10699 10699 10698 10697 10696 10695 10693 10692 10691 10689 10687 10685 10684 10681 10679 10677 10674 10671 10668 10666 10664 10662 10659 10655 10652 10649 10647 10644 10640 10637 10634 10632 10629 10626 10622 10619 10616 10613 10610 10608 10606 10607 10605 10602 10601 10599 10597 10596 10595 10595 10594 10592 10590 10586 10583 10582 10582 10579 10576 10573 10572 10569 10566 10564 10563 10561 10559 10556 10554 10553 10551 10549 10546 10543 10541 10540 10540 10539
10703 10703 10702 10702 10701 10701 10700 10699 10698 10698 10697 10696 10695 10693 10692 10691 10689 10688 10687 10685 10683 10681 10679 10676 10674 10671 10668 10665 10662 10660 10658 10656 10652 10648 10645 10641 10639 10635 10632 10629 10626 10624 10621 10617 10614 10610 10607 10605 10601 10600 10600 10599 10596 10593 10593 10591 10589 10588 10587 10587 10585 10584 10581 10577 10576 10576 10573 10569 10567 10565 10565 10562 10559 10556 10553 10552 10550 10548 10546 10545 10542 10540 10538 10536 10534 10531 10530 10529
10701 10701 10700 10699 10699 10698 10697 10697 10696 10695 10694 10693 10691 10690 10689 10687 10686 10685 10683 10680 10678 10675 10673 10671 10668 10665 10662 10659 10656 10653 10651 10649 10645 10641 10638 10634 10631 10627 10624 10621 10618 10615 10613 10609 10605 10601 10599 10597 10593 10593 10593 10591 10589 10587 10585 10584 10582 10581 10580 10578 10577 10576 10573 10569 10569 10568 10564 10561 10559 10557 10557 10555 10552 10548 10545 10543 10541 10540 10538 10536 10533 10531 10530 10528 10526 10523 10522 10520
10699 10698 10698 10697 10696 10695 10695 10694 10693 10692 10691 10689 10688 10686 10685 10683 10681 10680 10678 10676 10673 10670 10667 10665 10662 10659 10656 10653 10650 10647 10644 10641 10638 10634 10630 10627 10624 10620 10616 10613 10610 10607 10604 10601 10598 10594 10591 10589 10587 10587 10585 10583 10582 10581 10579 10577 10576 10574 10573 10571 10569 10568 10566 10562 10561 10558 10555 10552 10551 10551 10549 10547 10545 10542 10538 10535 10533 10531 10529 10527 10525 10523 10521 10519 10517 10515 10514 10512
10696 10696 10695 10694 10693 10692 10691 10690 10689 10688 10687 10685 10684 10682 10680 10678 10677 10675 10673 10671 10668 10665 10662 10659 10655 10652 10649 10647 10644 10641 10637 10634 10631 10627 10623 10620 10616 10612 10608 10605 10602 10599 10596 10593 10591 10588 10585 10583 10581 10580 10578 10576 10575 10574 10573 10571 10569 10567 10566 10565 10563 10560 10559 10557 10553 10550 10547 10544 10543 10542 10541 10540 10539 10535 10532 10529 10526 10523 10521 10519 10517 10516 10514 10511 10509 10507 10505 10503
10694 10693 10692 10691 10690 10689 10688 10687 10686 10684 10682 10681 10679 10678 10676 10674 10672 10670 10667 10665 10663 10659 10657 10653 10649 10645 10643 10640 10637 10634 10630 10626 10623 10619 10615 10612 10608 10605 10601 10597 10594 10592 10589 10586 10584 10581 10579 10577 10575 10573 10571 10570 10568 10567 10566 10564 10562 10561 10559 10558 10556 10553 10551 10550 10547 10543 10540 10537 10535 10534 10532 10532 10531 10528 10525 10522 10518 10516 10513 10512 10510 10509 10507 10504 10502 10499 10497 10495
10692 10691 10690 10689 10687 10686 10685 10684 10682 10680 10679 10677 10675 10673 10671 10669 10667 10665 10662 10660 10657 10654 10651 10647 10644 10640 10637 10633 10630 10627 10623 10619 10616 10612 10608 10604 10600 10597 10594 10590 10587 10585 10582 10580 10577 10574 10572 10571 10568 10566 10565 10564 10562 10561 10560 10558 10556 10554 10552 10552 10550 10547 10545 10543 10540 10536 10534 10531 10528 10525 10523 10524 10523 10519 10517 10514 10510 10508 10506 10505 10503 10501 10499 10497 10494 10492 10489 10486
10690 10689 10687 10686 10684 10683 10682 10681 10679 10677 10675 10673 10671 10669 10667 10664 10662 10660 10657 10654 10652 10648 10645 10641 10638 10634 10631 10627 10623 10620 10616 10612 10608 10604 10600 10597 10593 10590 10587 10583 10581 10578 10576 10574 10572 10569 10566 10565 10562 10560 10559 10558 10556 10555 10553 10552 10550 10547 10546 10545 10543 10541 10539 10536 10533 10530 10527 10524 10521 10517 10515 10515 10515 10510 10508 10505 10502 10500 10499 10497 10495 10493 10491 10489 10486 10483 10479 10475
10687 10686 10685 10683 10682 10680 10678 10677 10675 10673 10671 10669 10667 10665 10662 10660 10658 10655 10652 10649 10646 10643 10639 10635 10632 10628 10625 10621 10617 10613 10609 10605 10601 10597 10593 10590 10587 10584 10580 10577 10575 10573 10570 10568 10566 10564 10561 10559 10557 10555 10553 10552 10550 10548 10546 10545 10544 10541 10538 10537 10536 10534 10532 10529 10526 10523 10521 10517 10513 10509 10505 10505 10506 10503 10500 10497 10494 10493 10491 10489 10487 10485 10483 10479 10475 10472 10468 10463
10684 10683 10682 10681 10679 10677 10675 10673 10671 10669 10667 10665 10663 10661 10658 10656 10653 10650 10647 10643 10639 10636 10633 10629 10626 10622 10619 10615 10610 10607 10602 10598 10594 10590 10587 10584 10580 10578 10575 10572 10569 10567 10565 10563 10561 10558 10556 10554 10552 10550 10548 10546 10544 10542 10540 10538 10536 10534 10532 10529 10527 10525 10523 10521 10518 10515 10513 10510 10506 10502 10497 10495 10496 10495 10492 10489 10487 10484 10483 10481 10479 10477 10473 10468 10463 10459 10455 10451
10681 10680 10679 10678 10676 10674 10672 10670 10668 10666 10664 10661 10659 10657 10654 10651 10648 10645 10641 10638 10633 10630 10627 10623 10619 10616 10612 10608 10604 10600 10595 10592 10588 10583 10580 10578 10575 10572 10570 10567 10565 10562 10560 10558 10556 10553 10551 10549 10547 10545 10542 10540 10538 10536 10533 10531 10529 10527 10525 10522 10519 10517 10514 10511 10509 10506 10503 10501 10498 10493 10488 10485 10486 10487 10483 10480 10478 10475 10474 10473 10469 10466 10461 10456 10451 10446 10442 10439
10678 10677 10676 10674 10673 10671 10669 10667 10665 10663 10660 10658 10655 10652 10649 10646 10643 10639 10636 10632 10628 10624 10621 10617 10613 10609 10606 10602 10597 10593 10589 10585 10582 10578 10575 10572 10570 10567 10565 10562 10560 10558 10555 10553 10551 10548 10546 10543 10541 10539 10537 10535 10532 10530 10527 10525 10522 10520 10517 10514 10512 10509 10506 10503 10500 10497 10494 10492 10489 10484 10480 10477 10476 10477 10474 10470 10469 10466 10465 10463 10458 10454 10449 10443 10438 10434 10430 10426
10676 10674 10673 10671 10669 10667 10666 10664 10661 10659 10656 10653 10650 10647 10644 10641 10637 10634 10630 10627 10623 10618 10615 10611 10606 10602 10598 10595 10591 10587 10583 10579 10575 10572 10570 10567 10565 10562 10560 10557 10555 10553 10551 10548 10546 10543 10540 10538 10535 10533 10531 10529 10527 10524 10522 10519 10516 10513 10510 10507 10504 10501 10499 10495 10492 10488 10485 10482 10479 10475 10472 10468 10466 10467 10464 10460 10457 10455 10454 10452 10446 10441 10436 10430 10426 10422 10419 10414
10672 10671 10670 10668 10666 10664 10662 10659 10657 10654 10651 10648 10645 10642 10639 10636 10632 10629 10625 10621 10617 10612 10608 10604 10600 10596 10591 10588 10585 10581 10577 10574 10570 10567 10565 10562 10560 10557 10555 10553 10550 10548 10546 10543 10541 10538 10535 10532 10529 10527 10525 10523 10520 10518 10515 10513 10509 10506 10503 10500 10497 10494 10491 10488 10484 10480 10476 10473 10470 10467 10463 10459 10458 10458 10455 10450 10445 10443 10442 10439 10433 10428 10424 10419 10415 10411 10407 10403
10669 10668 10666 10664 10662 10660 10657 10655 10652 10649 10646 10643 10640 10637 10634 10630 10627 10623 10619 10615 10611 10606 10602 10598 10594 10590 10585 10582 10578 10575 10572 10569 10566 10563 10560 10558 10556 10553 10550 10548 10546 10543 10540 10538 10535 10533 10530 10526 10523 10521 10519 10517 10514 10511 10509 10506 10502 10499 10496 10492 10489 10486 10483 10481 10477 10472 10468 10464 10461 10458 10454 10451 10450 10449 10444 10439 10435 10432 10430 10426 10421 10416 10412 10408 10403 10399 10396 10392
10666 10665 10663 10661 10659 10656 10653 10651 10648 10644 10642 10639 10636 10632 10629 10625 10621 10618 10614 10609 10605 10601 10596 10591 10588 10583 10580 10576 10573 10570 10567 10565 10562 10559 10556 10554 10551 10549 10546 10543 10541 10538 10536 10533 10530 10527 10524 10520 10517 10515 10513 10511 10508 10505 10502 10499 10496 10492 10488 10484 10481 10477 10475 10473 10469 10464 10460 10455 10452 10450 10445 10443 10443 10439 10433 10428 10423 10420 10418 10414 10410 10406 10402 10397 10392 10388 10385 10382
10663 10661 10659 10657 10655 10652 10649 10646 10644 10640 10637 10634 10631 10627 10624 10620 10616 10612 10607 10603 10599 10595 10590 10585 10582 10578 10574 10572 10568 10565 10563 10560 10558 10555 10552 10550 10547 10544 10541 10539 10536 10533 10530 10528 10525 10522 10517 10513 10510 10508 10506 10504 10501 10498 10495 10491 10488 10485 10480 10476 10472 10468 10465 10463 10460 10456 10452 10447 10444 10440 10436 10435 10434 10429 10423 10417 10412 10408 10405 10402 10399 10395 10391 10387 10381 10377 10375 10371
10660 10658 10656 10653 10651 10648 10645 10643 10640 10636 10632 10629 10625 10622 10618 10614 10610 10605 10601 10597 10593 10589 10585 10580 10576 10573 10570 10567 10564 10561 10559 10556 10553 10551 10548 10545 10543 10540 10537 10534 10531 10528 10525 10522 10519 10517 10512 10506 10503 10500 10498 10496 10493 10490 10486 10483 10479 10476 10472 10468 10464 10459 10455 10453 10450 10447 10443 10439 10435 10431 10427 10425 10422 10419 10414 10407 10401 10397 10394 10390 10387 10383 10380 10375 10370 10367 10364 10360
10656 10654 10652 10649 10647 10644 10642 10639 10635 10631 10628 10624 10620 10616 10612 10608 10603 10599 10595 10590 10586 10583 10579 10576 10572 10569 10566 10563 10561 10558 10555 10552 10549 10546 10543 10540 10538 10535 10531 10528 10525 10522 10519 10516 10513 10511 10507 10501 10497 10494 10491 10489 10486 10482 10479 10475 10470 10467 10464 10460 10456 10451 10447 10443 10441 10438 10434 10430 10428 10423 10418 10414 10411 10408 10404 10396 10390 10387 10382 10379 10375 10371 10368 10364 10359 10356 10353 10349
10653 10650 10648 10646 10643 10640 10637 10633 10630 10626 10622 10618 10614 10610 10606 10601 10597 10593 10588 10584 10581 10577 10574 10571 10568 10565 10562 10559 10557 10554 10551 10548 10545 10542 10538 10535 10532 10529 10526 10522 10519 10516 10513 10510 10506 10504 10501 10495 10490 10488 10485 10482 10479 10475 10471 10467 10462 10459 10456 10452 10448 10444 10439 10435 10432 10429 10425 10421 10419 10416 10410 10405 10400 10396 10391 10385 10380 10376 10372 10368 10365 10361 10357 10353 10348 10345 10342 10337
10649 10647 10644 10642 10639 10636 10632 10628 10625 10621 10617 10613 10609 10604 10600 10595 10591 10587 10583 10580 10576 10573 10570 10567 10564 10561 10557 10554 10551 10548 10545 10542 10539 10536 10533 10530 10526 10523 10520 10517 10513 10510 10506 10503 10500 10496 10494 10489 10482 10480 10478 10475 10471 10467 10463 10459 10455 10451 10447 10443 10440 10436 10432 10428 10423 10419 10416 10411 10409 10406 10401 10397 10392 10385 10380 10376 10371 10367 10363 10359 10355 10351 10347 10342 10337 10333 10329 10324
10645 10643 10640 10637 10634 10631 10627 10624 10620 10616 10612 10607 10603 10599 10594 10590 10586 10582 10579 10576 10572 10569 10566 10563 10559 10556 10553 10550 10546 10543 10540 10537 10533 10530 10527 10524 10521 10517 10514 10511 10507 10503 10499 10496 10493 10489 10486 10483 10477 10472 10471 10467 10463 10459 10455 10451 10447 10443 10439 10434 10431 10427 10423 10419 10414 10410 10406 10402 10399 10396 10393 10389 10383 10375 10370 10367 10363 10358 10354 10349 10344 10340 10336 10331 10326 10321 10316 10311
10641 10639 10636 10633 10629 10626 10622 10619 10615 10611 10606 10602 10598 10593 10589 10586 10582 10578 10575 10572 10569 10565 10562 10558 10555 10552 10548 10545 10542 10538 10535 10531 10528 10525 10521 10518 10514 10510 10507 10504 10500 10496 10492 10488 10485 10482 10478 10475 10470 10466 10463 10460 10456 10451 10447 10443 10439 10435 10431 10427 10423 10419 10415 10411 10407 10401 10396 10393 10389 10386 10385 10381 10373 10365 10361 10358 10352 10347 10342 10337 10332 10328 10324 10319 10314 10308 10302 10297
10637 10634 10631 10628 10625 10621 10617 10614 10610 10606 10601 10597 10593 10589 10585 10582 10578 10574 10571 10568 10564 10561 10558 10554 10550 10547 10544 10540 10537 10533 10529 10526 10523 10519 10515 10511 10508 10504 10500 10497 10493 10489 10485 10481 10477 10474 10471 10467 10463 10459 10456 10452 10448 10445 10440 10436 10432 10428 10424 10419 10415 10411 10407 10404 10400 10394 10387 10383 10379 10375 10375 10372 10363 10355 10351 10347 10341 10336 10331 10326 10321 10316 10311 10307 10301 10295 10288 10283
10633 10630 10627 10624 10620 10617 10613 10608 10604 10600 10597 10593 10589 10585 10581 10578 10574 10571 10567 10564 10560 10557 10553 10550 10546 10542 10539 10535 10532 10528 10524 10521 10517 10513 10509 10505 10501 10498 10494 10490 10486 10482 10479 10475 10471 10467 10464 10460 10456 10453 10450 10446 10441 10437 10433 10429 10425 10421 10416 10412 10407 10404 10400 10396 10392 10386 10380 10374 10369 10365 10364 10361 10353 10346 10342 10336 10331 10326 10320 10314 10309 10303 10299 10294 10288 10281 10274 10268
10629 10625 10622 10619 10616 10612 10608 10604 10600 10596 10592 10588 10584 10581 10577 10573 10570 10567 10563 10560 10556 10552 10549 10545 10541 10537 10534 10530 10526 10523 10519 10515 10511 10507 10503 10499 10495 10492 10488 10484 10480 10476 10472 10469 10465 10461 10458 10454 10450 10446 10443 10440 10435 10430 10426 10423 10419 10414 10409 10404 10400 10396 10392 10387 10382 10377 10372 10367 10360 10356 10354 10350 10344 10338 10333 10327 10321 10315 10309 10302 10296 10290 10286 10281 10274 10266 10259 10253
10624 10621 10617 10614 10611 10607 10604 10599 10595 10591 10587 10584 10580 10577 10573 10570 10566 10562 10559 10555 10551 10547 10544 10540 10536 10532 10528 10525 10521 10517 10513 10509 10506 10501 10497 10494 10489 10485 10482 10478 10474 10470 10466 10463 10459 10455 10452 10449 10445 10441 10437 10432 10428 10423 10419 10416 10412 10408 10403 10397 10392 10388 10384 10379 10374 10368 10364 10358 10352 10347 10343 10338 10333 10328 10322 10316 10310 10303 10296 10289 10282 10278 10273 10267 10259 10251 10244 10238
10619 10616 10613 10609 10606 10602 10599 10595 10591 10587 10583 10580 10576 10572 10569 10565 10562 10558 10554 10550 10546 10542 10539 10535 10531 10527 10523 10519 10515 10511 10508 10504 10500 10496 10492 10488 10484 10480 10477 10473 10469 10465 10461 10457 10453 10449 10446 10443 10440 10437 10432 10426 10421 10417 10413 10409 10405 10401 10396 10390 10385 10380 10375 10370 10365 10360 10354 10349 10343 10337 10332 10327 10322 10316 10309 10303 10297 10290 10282 10275 10268 10263 10258 10251 10243 10235 10228 10221
10615 10612 10608 10605 10601 10597 10594 10590 10587 10583 10579 10576 10572 10569 10565 10561 10557 10553 10549 10546 10541 10538 10534 10530 10526 10522 10518 10514 10510 10506 10502 10499 10495 10492 10488 10484 10480 10476 10472 10468 10464 10460 10456 10453 10448 10444 10440 10437 10434 10431 10427 10421 10416 10412 10407 10403 10398 10393 10388 10383 10378 10373 10367 10361 10356 10350 10344 10338 10332 10325 10320 10315 10310 10304 10296 10288 10282 10275 10267 10259 10252 10245 10239 10231 10222 10214 10207 10199
10611 10608 10604 10601 10597 10593 10590 10586 10582 10579 10575 10572 10568 10564 10561 10557 10553 10549 10545 10541 10537 10533 10529 10525 10520 10517 10513 10509 10505 10501 10497 10494 10490 10487 10483 10479 10475 10471 10467 10463 10459 10455 10452 10447 10443 10439 10435 10431 10428 10425 10420 10415 10410 10405 10400 10395 10391 10386 10381 10376 10370 10364 10358 10352 10345 10339 10333 10326 10320 10313 10307 10301 10297 10290 10282 10274 10267 10259 10251 10242 10234 10227 10220 10211 10202 10194 10187 10179
10607 10604 10600 10597 10593 10589 10586 10582 10578 10575 10571 10567 10564 10560 10556 10552 10548 10544 10540 10536 10532 10528 10524 10520 10516 10512 10508 10504 10500 10496 10492 10489 10485 10482 10478 10474 10470 10466 10463 10459 10454 10451 10447 10442 10438 10433 10429 10424 10421 10417 10413 10407 10402 10398 10392 10387 10382 10377 10372 10367 10362 10355 10349 10342 10335 10328 10322 10314 10307 10300 10293 10287 10282 10275 10267 10259 10252 10244 10235 10226 10218 10211 10203 10194 10186 10179 10170 10161
10603 10599 10596 10593 10589 10586 10582 10578 10574 10571 10567 10563 10559 10555 10552 10548 10544 10539 10535 10531 10527 10523 10519 10515 10512 10508 10504 10500 10496 10492 10488 10484 10480 10476 10472 10469 10465 10461 10457 10453 10449 10445 10441 10436 10432 10427 10422 10417 10413 10410 10405 10399 10394 10389 10383 10378 10372 10367 10361 10357 10351 10345 10339 10332 10325 10317 10310 10302 10295 10288 10281 10274 10268 10261 10252 10244 10236 10227 10218 10209 10201 10194 10186 10177 10170 10162 10153 10145
10599 10595 10592 10589 10585 10581 10578 10574 10570 10567 10563 10559 10555 10551 10547 10543 10539 10535 10531 10527 10523 10519 10515 10511 10507 10504 10500 10496 10492 10488 10484 10480 10476 10472 10468 10464 10460 10455 10451 10447 10443 10439 10435 10430 10425 10420 10415 10410 10406 10401 10396 10391 10386 10380 10374 10368 10362 10355 10350 10345 10340 10334 10328 10321 10314 10306 10298 10289 10281 10275 10268 10260 10252 10244 10236 10227 10219 10210 10200 10191 10183 10176 10168 10160 10153 10144 10136 10129
10595 10592 10588 10585 10581 10577 10574 10570 10566 10563 10559 10555 10551 10547 10543 10539 10535 10531 10527 10523 10519 10515 10512 10508 10504 10500 10496 10492 10488 10484 10480 10476 10472 10468 10464 10460 10455 10451 10446 10441 10437 10433 10428 10423 10418 10413 10408 10402 10397 10393 10388 10382 10376 10371 10365 10358 10351 10344 10338 10333 10328 10322 10316 10309 10302 10294 10285 10276 10268 10260 10253 10244 10236 10227 10219 10210 10201 10192 10184 10174 10167 10160 10152 10144 10137 10129 10121 10113
10592 10588 10585 10581 10577 10573 10570 10566 10562 10559 10555 10551 10547 10542 10539 10535 10531 10527 10523 10519 10515 10512 10508 10504 10500 10496 10492 10488 10484 10480 10476 10472 10468 10464 10460 10456 10451 10446 10441 10436 10432 10427 10422 10416 10411 10405 10400 10394 10388 10383 10378 10372 10366 10361 10355 10348 10341 10334 10327 10321 10315 10308 10302 10295 10287 10279 10269 10260 10252 10245 10237 10229 10221 10214 10206 10197 10187 10178 10170 10160 10152 10145 10138 10130 10121 10114 10106 10099